Precipitable_Water
0.18 0.18 0.17 0.17 0.16 0.15 0.15 0.15 0.15 0.15 0.14 0.14 0.14 0.14 0.15 0.14 0.13 0.14 0.13 0.13 0.13 0.12 0.12 0.11 0.11 0.11 0.12 0.12 0.13 0.13 0.13 0.13 0.14 0.14 0.14 0.14 0.14 0.15 0.15 0.16 0.17 0.18 0.19 0.20 0.21 0.23 0.24 0.27 0.30 0.33 0.38 0.43 0.48 0.51 0.51 0.50 0.50 0.50 0.50 0.50 0.49 0.50 0.49 0.46 0.42 0.40 0.42 0.45 0.45 0.45 0.45 0.44 0.42 0.42 0.41 0.41 0.41 0.41 0.41 0.41 0.40 0.39 0.38 0.36 0.36
0.17 0.17 0.17 0.16 0.16 0.16 0.16 0.16 0.15 0.15 0.14 0.14 0.13 0.13 0.13 0.13 0.13 0.13 0.12 0.12 0.13 0.12 0.12 0.12 0.11 0.11 0.11 0.10 0.10 0.11 0.11 0.11 0.11 0.12 0.12 0.12 0.12 0.13 0.13 0.13 0.14 0.15 0.16 0.17 0.18 0.20 0.20 0.21 0.23 0.25 0.29 0.32 0.36 0.41 0.47 0.51 0.51 0.49 0.48 0.49 0.49 0.49 0.50 0.47 0.46 0.43 0.40 0.43 0.43 0.45 0.46 0.47 0.43 0.44 0.42 0.41 0.41 0.42 0.41 0.41 0.40 0.40 0.38 0.37 0.36
0.17 0.17 0.17 0.16 0.16 0.16 0.16 0.15 0.15 0.15 0.14 0.13 0.13 0.13 0.13 0.13 0.13 0.12 0.12 0.12 0.12 0.12 0.12 0.11 0.11 0.11 0.10 0.10 0.10 0.10 0.10 0.10 0.10 0.10 0.10 0.10 0.11 0.11 0.12 0.12 0.12 0.12 0.13 0.14 0.15 0.17 0.18 0.19 0.19 0.21 0.22 0.24 0.27 0.31 0.35 0.40 0.46 0.50 0.50 0.49 0.48 0.48 0.50 0.49 0.47 0.44 0.43 0.43 0.45 0.43 0.43 0.45 0.45 0.44 0.45 0.44 0.43 0.42 0.40 0.40 0.40 0.40 0.39 0.38 0.37
0.18 0.17 0.17 0.17 0.17 0.17 0.16 0.16 0.15 0.15 0.14 0.14 0.13 0.13 0.13 0.13 0.13 0.12 0.12 0.12 0.11 0.12 0.12 0.11 0.11 0.10 0.10 0.10 0.10 0.09 0.09 0.09 0.09 0.09 0.09 0.09 0.09 0.10 0.11 0.11 0.11 0.12 0.12 0.13 0.13 0.13 0.14 0.15 0.17 0.18 0.20 0.20 0.21 0.23 0.26 0.29 0.33 0.38 0.44 0.49 0.50 0.48 0.48 0.49 0.49 0.47 0.45 0.43 0.45 0.44 0.44 0.43 0.44 0.46 0.47 0.46 0.44 0.43 0.43 0.42 0.43 0.41 0.40 0.39 0.38
0.18 0.18 0.18 0.17 0.17 0.16 0.16 0.16 0.15 0.15 0.14 0.14 0.13 0.13 0.13 0.13 0.13 0.13 0.13 0.12 0.12 0.11 0.11 0.11 0.10 0.10 0.10 0.09 0.09 0.09 0.09 0.09 0.09 0.09 0.09 0.09 0.09 0.09 0.10 0.10 0.11 0.11 0.11 0.12 0.12 0.13 0.13 0.13 0.14 0.15 0.17 0.18 0.18 0.20 0.21 0.22 0.25 0.28 0.33 0.38 0.43 0.48 0.50 0.49 0.48 0.48 0.46 0.44 0.44 0.47 0.47 0.45 0.44 0.45 0.46 0.45 0.45 0.45 0.44 0.43 0.43 0.42 0.42 0.41 0.39
0.18 0.18 0.17 0.16 0.16 0.16 0.16 0.15 0.15 0.14 0.14 0.13 0.13 0.13 0.12 0.12 0.12 0.12 0.12 0.11 0.11 0.11 0.10 0.10 0.10 0.10 0.10 0.10 0.10 0.10 0.09 0.09 0.09 0.09 0.09 0.09 0.09 0.09 0.09 0.10 0.10 0.11 0.11 0.11 0.12 0.12 0.12 0.12 0.12 0.13 0.14 0.15 0.15 0.17 0.18 0.19 0.20 0.22 0.24 0.28 0.33 0.38 0.44 0.48 0.50 0.48 0.47 0.46 0.46 0.45 0.47 0.46 0.46 0.45 0.45 0.45 0.44 0.43 0.43 0.43 0.43 0.43 0.42 0.41 0.41
0.18 0.17 0.17 0.16 0.16 0.16 0.16 0.16 0.15 0.15 0.14 0.13 0.13 0.13 0.12 0.12 0.12 0.11 0.12 0.11 0.10 0.10 0.10 0.10 0.10 0.10 0.10 0.10 0.10 0.10 0.10 0.09 0.09 0.09 0.09 0.09 0.09 0.09 0.09 0.09 0.10 0.10 0.11 0.11 0.12 0.12 0.12 0.12 0.12 0.12 0.13 0.14 0.14 0.15 0.16 0.17 0.18 0.18 0.20 0.22 0.25 0.29 0.33 0.39 0.44 0.48 0.48 0.46 0.46 0.47 0.46 0.48 0.48 0.46 0.47 0.47 0.45 0.43 0.41 0.40 0.40 0.41 0.42 0.41 0.40
0.18 0.18 0.17 0.17 0.17 0.17 0.17 0.17 0.17 0.16 0.15 0.14 0.13 0.13 0.12 0.12 0.12 0.12 0.11 0.11 0.10 0.10 0.10 0.09 0.09 0.10 0.10 0.10 0.10 0.10 0.10 0.09 0.09 0.10 0.10 0.10 0.11 0.11 0.11 0.11 0.11 0.11 0.11 0.11 0.12 0.12 0.12 0.13 0.13 0.13 0.13 0.13 0.14 0.14 0.15 0.15 0.16 0.16 0.17 0.19 0.20 0.22 0.25 0.29 0.34 0.40 0.44 0.46 0.46 0.45 0.46 0.46 0.48 0.49 0.50 0.49 0.45 0.44 0.44 0.42 0.39 0.39 0.40 0.41 0.41
0.19 0.18 0.18 0.18 0.18 0.18 0.18 0.18 0.18 0.17 0.15 0.14 0.13 0.13 0.12 0.12 0.12 0.11 0.11 0.11 0.10 0.10 0.10 0.10 0.10 0.10 0.10 0.10 0.10 0.10 0.10 0.10 0.10 0.10 0.11 0.12 0.13 0.14 0.14 0.14 0.14 0.14 0.13 0.13 0.12 0.12 0.12 0.12 0.13 0.14 0.14 0.14 0.15 0.15 0.15 0.15 0.15 0.15 0.15 0.17 0.17 0.18 0.20 0.22 0.26 0.31 0.35 0.40 0.43 0.46 0.45 0.45 0.46 0.47 0.47 0.48 0.47 0.45 0.46 0.46 0.43 0.43 0.42 0.41 0.41
0.19 0.19 0.19 0.19 0.19 0.19 0.19 0.19 0.18 0.17 0.15 0.14 0.13 0.13 0.12 0.12 0.11 0.11 0.10 0.10 0.10 0.10 0.10 0.10 0.10 0.10 0.10 0.10 0.10 0.10 0.10 0.10 0.11 0.12 0.13 0.14 0.15 0.15 0.15 0.15 0.15 0.15 0.14 0.14 0.14 0.14 0.13 0.13 0.13 0.13 0.13 0.14 0.15 0.16 0.16 0.16 0.16 0.16 0.15 0.15 0.16 0.16 0.17 0.18 0.20 0.23 0.28 0.32 0.36 0.41 0.43 0.43 0.44 0.44 0.45 0.47 0.49 0.49 0.47 0.46 0.43 0.43 0.43 0.42 0.41
0.21 0.20 0.20 0.20 0.20 0.20 0.19 0.19 0.18 0.16 0.15 0.14 0.13 0.13 0.12 0.12 0.11 0.10 0.10 0.10 0.10 0.10 0.10 0.10 0.10 0.10 0.10 0.10 0.10 0.10 0.11 0.11 0.12 0.13 0.14 0.15 0.16 0.16 0.15 0.15 0.15 0.15 0.15 0.15 0.14 0.14 0.14 0.15 0.15 0.14 0.14 0.14 0.14 0.15 0.16 0.16 0.16 0.16 0.16 0.16 0.16 0.16 0.15 0.15 0.17 0.18 0.20 0.24 0.30 0.34 0.38 0.41 0.43 0.45 0.44 0.45 0.47 0.48 0.47 0.46 0.45 0.44 0.42 0.40 0.39
0.21 0.21 0.20 0.20 0.20 0.19 0.19 0.18 0.17 0.16 0.15 0.14 0.13 0.13 0.12 0.11 0.10 0.10 0.10 0.09 0.10 0.10 0.10 0.10 0.10 0.10 0.11 0.11 0.10 0.10 0.10 0.11 0.13 0.13 0.14 0.15 0.16 0.16 0.16 0.15 0.15 0.15 0.14 0.14 0.14 0.14 0.14 0.15 0.15 0.15 0.15 0.14 0.14 0.14 0.14 0.15 0.15 0.16 0.16 0.16 0.16 0.16 0.17 0.16 0.15 0.16 0.17 0.18 0.21 0.26 0.31 0.35 0.40 0.44 0.44 0.44 0.44 0.45 0.47 0.48 0.46 0.44 0.43 0.42 0.41
0.21 0.21 0.20 0.20 0.20 0.20 0.19 0.18 0.17 0.16 0.15 0.14 0.13 0.12 0.11 0.10 0.10 0.10 0.09 0.10 0.10 0.10 0.10 0.10 0.10 0.10 0.11 0.10 0.10 0.10 0.10 0.11 0.13 0.13 0.14 0.15 0.16 0.16 0.16 0.15 0.14 0.14 0.14 0.14 0.14 0.14 0.14 0.14 0.14 0.14 0.15 0.15 0.15 0.15 0.15 0.15 0.15 0.15 0.16 0.16 0.16 0.16 0.16 0.16 0.17 0.17 0.17 0.17 0.18 0.19 0.24 0.29 0.33 0.38 0.43 0.45 0.46 0.44 0.45 0.45 0.46 0.46 0.45 0.43 0.43
0.21 0.21 0.21 0.20 0.20 0.20 0.19 0.18 0.16 0.15 0.14 0.13 0.12 0.11 0.10 0.10 0.10 0.10 0.10 0.10 0.10 0.10 0.10 0.10 0.10 0.10 0.10 0.11 0.10 0.10 0.10 0.11 0.12 0.13 0.14 0.14 0.14 0.14 0.14 0.14 0.14 0.14 0.14 0.14 0.14 0.14 0.14 0.14 0.14 0.13 0.14 0.15 0.15 0.15 0.15 0.15 0.15 0.15 0.15 0.15 0.16 0.16 0.15 0.16 0.16 0.17 0.17 0.18 0.17 0.17 0.18 0.23 0.27 0.32 0.38 0.42 0.43 0.43 0.43 0.43 0.44 0.45 0.45 0.44 0.45
0.21 0.21 0.21 0.21 0.21 0.19 0.18 0.17 0.16 0.15 0.13 0.12 0.11 0.11 0.10 0.10 0.10 0.10 0.10 0.10 0.10 0.09 0.09 0.10 0.10 0.10 0.11 0.11 0.10 0.10 0.10 0.11 0.12 0.12 0.13 0.13 0.13 0.13 0.13 0.13 0.13 0.12 0.13 0.13 0.13 0.13 0.13 0.13 0.13 0.12 0.13 0.13 0.14 0.14 0.14 0.14 0.15 0.15 0.16 0.16 0.16 0.16 0.16 0.16 0.15 0.16 0.17 0.17 0.18 0.18 0.17 0.19 0.22 0.26 0.32 0.37 0.40 0.42 0.44 0.44 0.45 0.44 0.45 0.46 0.46
0.21 0.21 0.21 0.20 0.19 0.19 0.18 0.17 0.15 0.14 0.13 0.12 0.11 0.10 0.10 0.10 0.10 0.10 0.10 0.10 0.10 0.10 0.10 0.10 0.10 0.10 0.10 0.10 0.10 0.09 0.10 0.11 0.11 0.12 0.12 0.12 0.13 0.13 0.12 0.12 0.12 0.13 0.13 0.13 0.13 0.13 0.13 0.13 0.13 0.13 0.13 0.13 0.13 0.14 0.15 0.16 0.16 0.16 0.16 0.17 0.18 0.17 0.17 0.18 0.18 0.17 0.17 0.17 0.17 0.17 0.17 0.18 0.19 0.20 0.24 0.30 0.35 0.39 0.42 0.43 0.43 0.42 0.42 0.41 0.41
0.21 0.20 0.20 0.19 0.19 0.18 0.17 0.16 0.14 0.13 0.12 0.11 0.11 0.10 0.10 0.10 0.10 0.10 0.10 0.10 0.10 0.10 0.10 0.10 0.10 0.10 0.10 0.10 0.09 0.09 0.09 0.10 0.11 0.11 0.11 0.12 0.12 0.12 0.13 0.13 0.14 0.14 0.14 0.14 0.14 0.14 0.14 0.14 0.14 0.13 0.13 0.13 0.13 0.14 0.15 0.16 0.16 0.16 0.15 0.15 0.16 0.17 0.18 0.19 0.19 0.20 0.19 0.18 0.18 0.17 0.17 0.17 0.18 0.20 0.21 0.24 0.29 0.34 0.38 0.39 0.39 0.40 0.39 0.38 0.40
0.20 0.19 0.19 0.18 0.18 0.17 0.16 0.15 0.14 0.13 0.12 0.11 0.11 0.10 0.10 0.10 0.10 0.10 0.10 0.10 0.10 0.10 0.10 0.10 0.10 0.10 0.10 0.09 0.09 0.09 0.10 0.10 0.11 0.11 0.11 0.12 0.13 0.14 0.15 0.15 0.15 0.15 0.15 0.15 0.15 0.15 0.15 0.15 0.15 0.15 0.14 0.14 0.15 0.15 0.16 0.16 0.15 0.14 0.14 0.15 0.15 0.15 0.15 0.17 0.18 0.19 0.21 0.20 0.19 0.18 0.18 0.17 0.18 0.19 0.20 0.21 0.24 0.30 0.32 0.33 0.38 0.40 0.38 0.38 0.38
0.19 0.18 0.18 0.18 0.18 0.17 0.16 0.15 0.14 0.13 0.12 0.11 0.11 0.10 0.10 0.10 0.10 0.11 0.10 0.10 0.10 0.10 0.10 0.10 0.10 0.10 0.09 0.09 0.10 0.10 0.10 0.10 0.10 0.10 0.11 0.12 0.14 0.16 0.16 0.16 0.15 0.15 0.15 0.14 0.14 0.14 0.15 0.16 0.16 0.17 0.17 0.16 0.17 0.16 0.16 0.16 0.16 0.15 0.15 0.15 0.14 0.14 0.14 0.15 0.16 0.17 0.18 0.19 0.19 0.18 0.17 0.17 0.18 0.18 0.19 0.20 0.21 0.24 0.28 0.31 0.35 0.37 0.37 0.38 0.38
0.19 0.18 0.18 0.18 0.17 0.17 0.16 0.15 0.14 0.13 0.12 0.11 0.11 0.11 0.11 0.11 0.11 0.10 0.10 0.10 0.10 0.10 0.10 0.10 0.09 0.09 0.09 0.09 0.10 0.10 0.09 0.09 0.09 0.10 0.12 0.14 0.16 0.17 0.16 0.15 0.14 0.14 0.13 0.13 0.12 0.12 0.12 0.12 0.13 0.14 0.15 0.16 0.17 0.18 0.19 0.20 0.19 0.18 0.16 0.14 0.13 0.13 0.15 0.16 0.18 0.19 0.19 0.19 0.19 0.19 0.18 0.17 0.17 0.17 0.18 0.18 0.19 0.21 0.23 0.27 0.30 0.33 0.35 0.37 0.38
0.18 0.18 0.18 0.17 0.17 0.16 0.15 0.14 0.13 0.12 0.12 0.11 0.11 0.11 0.11 0.11 0.11 0.10 0.10 0.10 0.10 0.10 0.10 0.09 0.09 0.09 0.09 0.10 0.10 0.09 0.09 0.09 0.10 0.11 0.13 0.15 0.17 0.17 0.16 0.15 0.14 0.13 0.13 0.12 0.12 0.12 0.12 0.12 0.12 0.13 0.14 0.14 0.14 0.15 0.15 0.16 0.18 0.19 0.19 0.18 0.17 0.16 0.16 0.15 0.15 0.17 0.18 0.20 0.20 0.19 0.19 0.18 0.17 0.17 0.17 0.17 0.18 0.18 0.20 0.23 0.26 0.29 0.32 0.34 0.35
0.18 0.18 0.17 0.17 0.16 0.15 0.14 0.14 0.13 0.12 0.11 0.11 0.11 0.11 0.11 0.11 0.11 0.10 0.10 0.10 0.10 0.09 0.09 0.09 0.09 0.09 0.09 0.10 0.09 0.09 0.09 0.10 0.10 0.12 0.14 0.16 0.16 0.17 0.16 0.15 0.15 0.13 0.12 0.12 0.13 0.13 0.13 0.13 0.12 0.13 0.13 0.13 0.14 0.14 0.15 0.15 0.16 0.17 0.17 0.18 0.19 0.20 0.20 0.19 0.18 0.16 0.15 0.17 0.19 0.19 0.19 0.19 0.18 0.17 0.16 0.16 0.17 0.18 0.18 0.19 0.22 0.25 0.28 0.32 0.34
0.18 0.17 0.17 0.16 0.15 0.15 0.14 0.13 0.12 0.11 0.11 0.11 0.11 0.11 0.11 0.11 0.10 0.10 0.10 0.10 0.09 0.09 0.09 0.09 0.09 0.09 0.09 0.09 0.09 0.09 0.09 0.10 0.11 0.13 0.15 0.16 0.16 0.16 0.16 0.16 0.15 0.14 0.13 0.13 0.13 0.13 0.14 0.14 0.13 0.13 0.13 0.14 0.14 0.14 0.15 0.15 0.15 0.15 0.16 0.18 0.20 0.21 0.21 0.20 0.20 0.18 0.17 0.15 0.16 0.18 0.19 0.19 0.18 0.18 0.16 0.15 0.16 0.17 0.18 0.18 0.20 0.22 0.25 0.28 0.32
0.17 0.17 0.16 0.15 0.15 0.14 0.13 0.12 0.12 0.11 0.11 0.11 0.11 0.11 0.10 0.10 0.10 0.10 0.10 0.10 0.09 0.09 0.09 0.09 0.09 0.09 0.08 0.08 0.08 0.09 0.10 0.10 0.12 0.14 0.16 0.16 0.16 0.16 0.16 0.16 0.16 0.15 0.15 0.14 0.14 0.14 0.14 0.13 0.13 0.13 0.15 0.15 0.15 0.15 0.15 0.15 0.15 0.15 0.16 0.17 0.18 0.20 0.20 0.20 0.20 0.20 0.19 0.17 0.16 0.16 0.17 0.18 0.19 0.18 0.18 0.17 0.16 0.16 0.17 0.18 0.19 0.20 0.22 0.25 0.28
0.17 0.16 0.15 0.15 0.14 0.13 0.13 0.12 0.11 0.11 0.11 0.11 0.10 0.10 0.10 0.10 0.10 0.10 0.10 0.09 0.09 0.09 0.09 0.09 0.09 0.09 0.08 0.08 0.08 0.09 0.10 0.10 0.12 0.15 0.16 0.16 0.16 0.16 0.16 0.16 0.16 0.16 0.15 0.15 0.15 0.15 0.15 0.15 0.15 0.15 0.15 0.15 0.15 0.14 0.14 0.13 0.13 0.13 0.14 0.14 0.16 0.18 0.19 0.20 0.20 0.20 0.19 0.18 0.17 0.17 0.18 0.19 0.19 0.19 0.20 0.19 0.18 0.18 0.17 0.19 0.20 0.21 0.23 0.24 0.27
0.16 0.15 0.15 0.14 0.14 0.13 0.12 0.11 0.11 0.11 0.11 0.11 0.11 0.10 0.10 0.10 0.10 0.10 0.10 0.09 0.09 0.09 0.09 0.10 0.09 0.08 0.08 0.08 0.09 0.09 0.10 0.11 0.12 0.14 0.16 0.16 0.16 0.16 0.16 0.16 0.16 0.16 0.16 0.16 0.16 0.16 0.16 0.16 0.15 0.15 0.15 0.14 0.14 0.13 0.13 0.13 0.14 0.14 0.15 0.16 0.17 0.17 0.18 0.19 0.19 0.19 0.19 0.20 0.20 0.18 0.19 0.21 0.21 0.21 0.21 0.21 0.19 0.18 0.17 0.17 0.18 0.19 0.21 0.21 0.22
0.15 0.15 0.14 0.14 0.13 0.12 0.11 0.10 0.10 0.10 0.11 0.11 0.10 0.10 0.10 0.10 0.10 0.10 0.10 0.09 0.09 0.09 0.10 0.10 0.09 0.08 0.08 0.08 0.09 0.09 0.10 0.11 0.12 0.14 0.15 0.16 0.16 0.16 0.16 0.16 0.16 0.17 0.16 0.16 0.16 0.16 0.15 0.16 0.15 0.15 0.16 0.16 0.15 0.15 0.15 0.15 0.15 0.15 0.15 0.15 0.16 0.16 0.18 0.18 0.19 0.18 0.19 0.21 0.21 0.21 0.21 0.23 0.24 0.23 0.22 0.22 0.20 0.19 0.19 0.18 0.18 0.18 0.19 0.19 0.20
0.15 0.14 0.14 0.13 0.12 0.11 0.10 0.10 0.10 0.10 0.10 0.10 0.10 0.10 0.10 0.10 0.10 0.10 0.10 0.09 0.09 0.10 0.10 0.09 0.09 0.09 0.09 0.09 0.09 0.10 0.10 0.11 0.12 0.13 0.14 0.15 0.16 0.16 0.16 0.16 0.16 0.16 0.16 0.16 0.16 0.16 0.16 0.15 0.15 0.15 0.15 0.15 0.15 0.15 0.15 0.15 0.15 0.15 0.16 0.15 0.15 0.15 0.16 0.18 0.20 0.21 0.21 0.23 0.23 0.23 0.23 0.25 0.25 0.24 0.23 0.22 0.21 0.20 0.19 0.18 0.18 0.17 0.18 0.18 0.17
0.14 0.14 0.13 0.12 0.11 0.10 0.10 0.10 0.10 0.10 0.10 0.10 0.10 0.10 0.10 0.10 0.10 0.10 0.10 0.11 0.11 0.11 0.10 0.10 0.10 0.10 0.10 0.10 0.10 0.10 0.10 0.10 0.12 0.14 0.15 0.16 0.16 0.16 0.16 0.16 0.16 0.16 0.16 0.17 0.17 0.16 0.16 0.15 0.14 0.14 0.14 0.13 0.14 0.14 0.15 0.16 0.16 0.16 0.16 0.15 0.15 0.15 0.17 0.18 0.18 0.20 0.22 0.24 0.23 0.23 0.22 0.24 0.26 0.26 0.25 0.23 0.22 0.21 0.20 0.18 0.19 0.18 0.17 0.17 0.15
0.13 0.12 0.11 0.10 0.10 0.10 0.10 0.10 0.10 0.10 0.10 0.10 0.10 0.10 0.11 0.11 0.11 0.11 0.10 0.12 0.13 0.14 0.13 0.11 0.12 0.12 0.11 0.12 0.12 0.11 0.11 0.12 0.13 0.14 0.15 0.16 0.16 0.17 0.17 0.16 0.16 0.16 0.16 0.17 0.16 0.15 0.15 0.15 0.15 0.14 0.13 0.13 0.13 0.14 0.15 0.16 0.16 0.16 0.17 0.17 0.16 0.16 0.16 0.18 0.19 0.20 0.21 0.23 0.24 0.23 0.23 0.25 0.26 0.26 0.25 0.23 0.23 0.22 0.21 0.19 0.18 0.18 0.16 0.15 0.14
0.12 0.11 0.10 0.09 0.09 0.10 0.10 0.10 0.10 0.10 0.10 0.10 0.10 0.10 0.10 0.10 0.11 0.12 0.12 0.13 0.14 0.13 0.13 0.13 0.13 0.13 0.13 0.12 0.12 0.13 0.13 0.13 0.14 0.14 0.15 0.16 0.16 0.17 0.16 0.16 0.16 0.16 0.17 0.17 0.16 0.16 0.15 0.14 0.14 0.13 0.13 0.13 0.13 0.14 0.15 0.15 0.16 0.16 0.17 0.17 0.17 0.16 0.17 0.17 0.18 0.19 0.21 0.23 0.24 0.23 0.22 0.22 0.24 0.26 0.25 0.24 0.23 0.22 0.21 0.21 0.19 0.18 0.17 0.15 0.14
0.10 0.09 0.09 0.09 0.09 0.10 0.10 0.10 0.10 0.10 0.10 0.10 0.10 0.09 0.09 0.09 0.09 0.11 0.13 0.13 0.13 0.13 0.13 0.13 0.13 0.13 0.13 0.13 0.12 0.12 0.13 0.13 0.14 0.14 0.15 0.16 0.16 0.16 0.16 0.17 0.17 0.18 0.17 0.17 0.16 0.15 0.14 0.13 0.12 0.12 0.13 0.13 0.14 0.14 0.15 0.15 0.16 0.17 0.17 0.17 0.16 0.16 0.16 0.17 0.18 0.19 0.20 0.22 0.23 0.24 0.24 0.23 0.23 0.23 0.24 0.24 0.23 0.22 0.21 0.20 0.19 0.18 0.17 0.16 0.15
0.09 0.09 0.09 0.09 0.09 0.10 0.10 0.10 0.10 0.10 0.10 0.10 0.10 0.09 0.09 0.09 0.09 0.10 0.12 0.14 0.13 0.12 0.12 0.12 0.12 0.12 0.12 0.12 0.13 0.13 0.13 0.13 0.14 0.14 0.15 0.15 0.16 0.16 0.17 0.17 0.17 0.17 0.17 0.16 0.15 0.14 0.13 0.13 0.12 0.12 0.13 0.13 0.14 0.15 0.15 0.16 0.16 0.17 0.17 0.17 0.17 0.17 0.17 0.17 0.18 0.19 0.20 0.22 0.23 0.23 0.24 0.25 0.25 0.25 0.24 0.23 0.23 0.22 0.21 0.20 0.19 0.18 0.17 0.16 0.16
0.09 0.09 0.09 0.09 0.09 0.09 0.09 0.10 0.10 0.10 0.10 0.10 0.09 0.09 0.09 0.09 0.10 0.10 0.11 0.11 0.11 0.11 0.12 0.12 0.12 0.12 0.12 0.12 0.12 0.12 0.13 0.13 0.13 0.14 0.14 0.15 0.16 0.16 0.16 0.16 0.16 0.16 0.16 0.15 0.14 0.14 0.13 0.13 0.13 0.13 0.14 0.14 0.15 0.16 0.16 0.16 0.17 0.18 0.18 0.18 0.18 0.18 0.17 0.18 0.19 0.20 0.21 0.22 0.23 0.23 0.24 0.24 0.24 0.23 0.22 0.23 0.23 0.23 0.22 0.21 0.20 0.18 0.17 0.16 0.15
0.09 0.09 0.09 0.09 0.09 0.09 0.09 0.10 0.10 0.10 0.10 0.10 0.09 0.09 0.09 0.10 0.10 0.11 0.11 0.10 0.10 0.10 0.10 0.11 0.11 0.12 0.12 0.12 0.12 0.12 0.12 0.13 0.13 0.13 0.14 0.15 0.15 0.15 0.15 0.14 0.13 0.14 0.15 0.15 0.14 0.14 0.13 0.13 0.13 0.14 0.14 0.15 0.15 0.16 0.16 0.17 0.17 0.18 0.18 0.18 0.18 0.18 0.18 0.18 0.19 0.19 0.20 0.22 0.22 0.23 0.23 0.23 0.24 0.25 0.24 0.23 0.22 0.22 0.21 0.21 0.20 0.19 0.17 0.15 0.16
0.09 0.09 0.09 0.09 0.09 0.09 0.10 0.10 0.10 0.10 0.10 0.10 0.10 0.10 0.10 0.10 0.11 0.12 0.11 0.10 0.10 0.10 0.10 0.10 0.11 0.11 0.11 0.11 0.11 0.12 0.12 0.12 0.13 0.13 0.14 0.14 0.14 0.14 0.13 0.12 0.13 0.13 0.14 0.14 0.14 0.13 0.13 0.14 0.14 0.14 0.15 0.15 0.16 0.16 0.17 0.17 0.18 0.18 0.18 0.18 0.18 0.17 0.17 0.18 0.18 0.19 0.20 0.22 0.23 0.23 0.24 0.24 0.24 0.24 0.24 0.24 0.23 0.22 0.22 0.21 0.20 0.19 0.17 0.16 0.16
0.09 0.09 0.09 0.09 0.09 0.09 0.10 0.10 0.10 0.10 0.10 0.10 0.10 0.10 0.10 0.11 0.12 0.12 0.11 0.10 0.10 0.10 0.10 0.10 0.10 0.10 0.11 0.11 0.11 0.11 0.12 0.12 0.13 0.13 0.13 0.13 0.13 0.13 0.13 0.13 0.13 0.13 0.14 0.14 0.13 0.13 0.13 0.14 0.14 0.14 0.15 0.15 0.15 0.16 0.17 0.18 0.19 0.19 0.19 0.19 0.18 0.17 0.18 0.18 0.19 0.20 0.20 0.21 0.22 0.22 0.21 0.22 0.23 0.24 0.24 0.23 0.22 0.22 0.21 0.20 0.19 0.18 0.17 0.17 0.18
0.09 0.09 0.09 0.09 0.09 0.10 0.10 0.10 0.10 0.10 0.10 0.10 0.10 0.10 0.10 0.11 0.12 0.12 0.11 0.10 0.10 0.10 0.10 0.10 0.10 0.10 0.10 0.10 0.11 0.11 0.11 0.12 0.12 0.12 0.12 0.12 0.12 0.12 0.13 0.13 0.13 0.13 0.14 0.14 0.14 0.13 0.13 0.14 0.14 0.14 0.14 0.15 0.15 0.17 0.18 0.19 0.20 0.20 0.20 0.20 0.20 0.20 0.20 0.21 0.21 0.22 0.22 0.22 0.22 0.22 0.21 0.22 0.24 0.24 0.23 0.23 0.22 0.21 0.20 0.20 0.19 0.17 0.17 0.18 0.18
0.09 0.09 0.09 0.09 0.09 0.09 0.10 0.10 0.10 0.10 0.10 0.10 0.10 0.10 0.11 0.11 0.12 0.11 0.10 0.10 0.11 0.10 0.10 0.10 0.10 0.10 0.10 0.10 0.10 0.11 0.11 0.11 0.10 0.10 0.11 0.11 0.12 0.12 0.12 0.13 0.13 0.14 0.14 0.14 0.14 0.13 0.13 0.13 0.14 0.15 0.15 0.15 0.16 0.17 0.17 0.18 0.20 0.20 0.20 0.20 0.20 0.21 0.21 0.22 0.22 0.23 0.22 0.22 0.22 0.23 0.22 0.22 0.23 0.24 0.25 0.24 0.22 0.21 0.19 0.19 0.19 0.18 0.18 0.18 0.19
0.09 0.09 0.09 0.09 0.09 0.09 0.09 0.09 0.09 0.09 0.10 0.10 0.10 0.11 0.11 0.12 0.12 0.11 0.10 0.11 0.11 0.10 0.10 0.10 0.10 0.10 0.10 0.10 0.10 0.11 0.10 0.10 0.10 0.10 0.10 0.11 0.11 0.12 0.12 0.12 0.13 0.13 0.14 0.14 0.14 0.14 0.14 0.14 0.14 0.14 0.15 0.15 0.15 0.16 0.17 0.18 0.18 0.19 0.20 0.21 0.21 0.21 0.22 0.22 0.22 0.23 0.22 0.23 0.22 0.23 0.23 0.23 0.24 0.24 0.23 0.22 0.21 0.20 0.19 0.19 0.18 0.19 0.19 0.19 0.20
0.09 0.08 0.08 0.08 0.08 0.08 0.09 0.09 0.09 0.09 0.10 0.10 0.10 0.11 0.11 0.12 0.11 0.11 0.10 0.11 0.11 0.11 0.10 0.10 0.10 0.10 0.11 0.11 0.11 0.11 0.10 0.10 0.10 0.10 0.10 0.10 0.11 0.11 0.12 0.12 0.13 0.13 0.14 0.14 0.14 0.14 0.14 0.14 0.14 0.15 0.15 0.15 0.15 0.15 0.16 0.17 0.17 0.18 0.19 0.19 0.20 0.21 0.21 0.22 0.23 0.23 0.23 0.23 0.23 0.23 0.23 0.24 0.24 0.23 0.22 0.21 0.21 0.20 0.20 0.19 0.19 0.19 0.20 0.20 0.20
0.08 0.07 0.07 0.08 0.08 0.08 0.09 0.09 0.09 0.10 0.10 0.10 0.11 0.11 0.12 0.12 0.11 0.10 0.11 0.11 0.11 0.11 0.10 0.10 0.10 0.11 0.11 0.11 0.11 0.11 0.11 0.10 0.10 0.10 0.10 0.11 0.11 0.11 0.12 0.12 0.13 0.13 0.14 0.14 0.14 0.14 0.14 0.14 0.14 0.14 0.15 0.15 0.15 0.15 0.15 0.16 0.16 0.17 0.17 0.18 0.19 0.19 0.20 0.21 0.22 0.22 0.22 0.23 0.23 0.23 0.23 0.23 0.23 0.22 0.22 0.21 0.20 0.20 0.19 0.19 0.19 0.19 0.19 0.19 0.19
0.07 0.07 0.07 0.08 0.08 0.09 0.09 0.09 0.10 0.10 0.10 0.11 0.11 0.12 0.12 0.12 0.11 0.11 0.11 0.11 0.11 0.11 0.10 0.10 0.10 0.11 0.11 0.11 0.11 0.11 0.11 0.11 0.11 0.11 0.11 0.11 0.11 0.11 0.12 0.12 0.13 0.14 0.14 0.14 0.14 0.14 0.14 0.14 0.14 0.15 0.15 0.15 0.15 0.15 0.15 0.15 0.16 0.16 0.16 0.17 0.17 0.18 0.18 0.19 0.20 0.21 0.21 0.22 0.22 0.22 0.22 0.21 0.21 0.21 0.20 0.20 0.20 0.19 0.19 0.18 0.18 0.18 0.19 0.19 0.18
0.07 0.07 0.08 0.08 0.08 0.09 0.09 0.10 0.10 0.10 0.11 0.11 0.12 0.12 0.12 0.11 0.11 0.11 0.11 0.11 0.11 0.11 0.10 0.10 0.10 0.10 0.10 0.11 0.11 0.11 0.11 0.11 0.11 0.11 0.11 0.11 0.11 0.11 0.12 0.13 0.13 0.14 0.14 0.14 0.15 0.15 0.15 0.15 0.15 0.15 0.15 0.15 0.15 0.15 0.16 0.16 0.16 0.16 0.16 0.16 0.16 0.17 0.17 0.17 0.17 0.17 0.18 0.19 0.19 0.19 0.19 0.19 0.19 0.19 0.19 0.19 0.19 0.18 0.18 0.18 0.18 0.18 0.18 0.18 0.18
0.07 0.07 0.08 0.08 0.09 0.09 0.09 0.10 0.10 0.10 0.11 0.12 0.12 0.12 0.11 0.10 0.10 0.11 0.11 0.11 0.11 0.11 0.10 0.10 0.10 0.10 0.10 0.10 0.10 0.10 0.10 0.11 0.11 0.11 0.11 0.11 0.11 0.11 0.12 0.13 0.13 0.14 0.14 0.14 0.15 0.15 0.15 0.15 0.15 0.15 0.15 0.16 0.16 0.16 0.16 0.16 0.16 0.16 0.16 0.16 0.16 0.16 0.16 0.16 0.17 0.17 0.17 0.17 0.16 0.16 0.17 0.17 0.17 0.18 0.18 0.18 0.18 0.18 0.18 0.18 0.18 0.18 0.18 0.17 0.17
0.07 0.08 0.08 0.08 0.09 0.09 0.09 0.10 0.10 0.11 0.12 0.12 0.12 0.11 0.10 0.10 0.10 0.11 0.11 0.11 0.11 0.10 0.10 0.10 0.10 0.10 0.10 0.10 0.10 0.10 0.10 0.10 0.11 0.11 0.11 0.11 0.11 0.12 0.12 0.13 0.13 0.14 0.14 0.14 0.15 0.15 0.15 0.15 0.15 0.15 0.15 0.16 0.16 0.16 0.16 0.16 0.17 0.17 0.17 0.17 0.17 0.17 0.17 0.18 0.18 0.18 0.18 0.18 0.17 0.17 0.17 0.17 0.17 0.18 0.18 0.18 0.18 0.18 0.18 0.18 0.18 0.17 0.17 0.17 0.17
0.08 0.08 0.08 0.08 0.09 0.09 0.09 0.10 0.11 0.12 0.12 0.12 0.11 0.10 0.10 0.10 0.10 0.10 0.10 0.10 0.10 0.10 0.10 0.10 0.10 0.10 0.10 0.10 0.10 0.10 0.10 0.10 0.10 0.11 0.11 0.11 0.11 0.12 0.12 0.13 0.13 0.14 0.14 0.14 0.15 0.15 0.15 0.15 0.15 0.15 0.15 0.16 0.16 0.16 0.16 0.16 0.17 0.17 0.17 0.17 0.18 0.18 0.18 0.18 0.18 0.18 0.18 0.18 0.18 0.18 0.18 0.18 0.18 0.18 0.18 0.18 0.18 0.18 0.17 0.17 0.17 0.17 0.17 0.17 0.17
0.08 0.08 0.08 0.08 0.09 0.09 0.10 0.11 0.12 0.12 0.11 0.11 0.10 0.10 0.10 0.10 0.10 0.10 0.10 0.10 0.10 0.10 0.10 0.10 0.10 0.10 0.10 0.10 0.10 0.10 0.10 0.10 0.10 0.10 0.11 0.11 0.11 0.11 0.12 0.12 0.13 0.13 0.14 0.14 0.14 0.15 0.15 0.15 0.15 0.15 0.15 0.16 0.16 0.16 0.16 0.16 0.16 0.17 0.17 0.17 0.17 0.18 0.18 0.18 0.18 0.18 0.19 0.19 0.18 0.18 0.18 0.18 0.17 0.17 0.17 0.17 0.17 0.17 0.17 0.17 0.17 0.17 0.17 0.16 0.16
0.08 0.08 0.08 0.09 0.09 0.10 0.10 0.11 0.11 0.11 0.11 0.10 0.10 0.10 0.10 0.10 0.10 0.10 0.10 0.10 0.10 0.10 0.10 0.10 0.10 0.10 0.10 0.10 0.10 0.10 0.10 0.10 0.10 0.10 0.10 0.11 0.11 0.11 0.11 0.12 0.12 0.13 0.13 0.14 0.14 0.14 0.14 0.15 0.15 0.15 0.15 0.16 0.16 0.16 0.16 0.16 0.16 0.17 0.17 0.17 0.17 0.17 0.18 0.18 0.18 0.18 0.18 0.18 0.18 0.18 0.18 0.17 0.17 0.17 0.17 0.17 0.17 0.17 0.16 0.16 0.16 0.16 0.16 0.16 0.16
0.09 0.09 0.09 0.09 0.10 0.10 0.11 0.11 0.11 0.10 0.10 0.10 0.10 0.10 0.10 0.10 0.10 0.10 0.10 0.10 0.10 0.10 0.09 0.09 0.09 0.09 0.09 0.09 0.10 0.10 0.10 0.10 0.10 0.10 0.10 0.10 0.11 0.11 0.11 0.11 0.11 0.12 0.12 0.13 0.14 0.14 0.14 0.14 0.15 0.15 0.15 0.15 0.16 0.16 0.16 0.16 0.16 0.16 0.17 0.17 0.17 0.17 0.17 0.17 0.18 0.18 0.18 0.18 0.18 0.17 0.17 0.17 0.17 0.17 0.16 0.16 0.16 0.16 0.16 0.16 0.16 0.16 0.16 0.16 0.15
0.09 0.09 0.10 0.10 0.11 0.11 0.11 0.11 0.10 0.10 0.09 0.09 0.09 0.09 0.09 0.09 0.09 0.09 0.09 0.09 0.09 0.09 0.09 0.09 0.09 0.09 0.09 0.09 0.09 0.09 0.09 0.09 0.10 0.10 0.10 0.10 0.10 0.10 0.11 0.11 0.11 0.11 0.12 0.12 0.13 0.13 0.14 0.14 0.14 0.15 0.15 0.15 0.15 0.15 0.16 0.16 0.16 0.16 0.17 0.17 0.17 0.17 0.17 0.17 0.17 0.17 0.17 0.17 0.17 0.17 0.17 0.16 0.16 0.16 0.16 0.16 0.16 0.16 0.15 0.15 0.15 0.15 0.15 0.15 0.15
Wind_Speed
43 43 43 43 43 43 43 44 44 44 45 45 46 46 46 47 47 47 47 48 48 48 49 49 49 49 49 50 50 50 51 51 51 51 51 52 53 53 53 54 54 54 54 54 54 54 54 54 54 53 53 53 53 53 53 53 53 53 53 53 54 54 54 55 56 57 56 55 55 55 55 56 57 57 57 56 55 55 55 55 54 54 53 53 53
43 43 43 43 43 44 44 44 45 45 46 46 46 47 47 48 48 48 48 49 49 49 50 50 50 51 51 51 52 52 53 53 53 53 54 54 54 55 55 56 56 56 56 56 56 56 56 56 56 55 54 55 55 54 54 54 54 55 55 55 55 55 54 55 56 57 57 56 55 55 55 55 57 58 58 58 57 56 56 56 55 55 55 54 54
43 43 44 44 44 44 45 45 46 46 46 47 47 47 48 48 49 49 49 50 50 51 51 52 52 52 53 53 53 54 55 55 55 56 56 56 57 57 57 58 58 58 58 58 58 58 58 58 58 57 56 56 56 56 56 56 55 56 56 56 57 57 56 56 57 57 58 57 56 56 55 55 56 57 58 58 58 58 58 57 57 56 56 56 55
43 43 44 44 45 45 45 46 46 47 47 47 48 48 48 49 49 50 50 51 51 52 53 53 54 54 54 55 55 56 56 57 57 57 58 58 59 59 59 59 60 60 60 60 60 60 60 60 60 60 59 59 59 57 57 57 57 57 57 57 57 58 58 58 58 58 58 58 57 56 56 56 56 56 57 58 59 59 59 58 58 57 57 57 56
44 44 44 44 45 45 46 46 47 47 47 48 48 49 49 49 50 50 51 52 52 53 54 54 55 55 56 56 57 57 58 58 59 59 59 59 60 61 61 61 61 62 62 62 62 61 62 62 62 61 61 61 61 60 59 59 58 58 58 58 58 58 59 59 59 60 59 60 59 57 56 57 57 56 57 57 58 59 59 59 59 58 58 58 58
44 44 44 45 45 46 46 46 47 47 48 48 49 49 49 50 50 51 52 52 53 54 54 55 56 56 57 58 58 59 59 60 60 61 61 61 62 62 62 63 63 63 64 64 64 63 64 64 64 63 63 63 63 63 62 62 61 61 60 60 59 59 60 60 60 61 61 61 60 59 58 58 57 57 57 57 57 58 58 59 60 60 59 59 58
44 44 45 45 45 46 46 47 47 48 48 49 49 49 50 50 51 51 52 53 53 54 55 55 56 56 57 58 59 59 60 61 61 62 62 63 63 64 64 65 65 65 66 66 66 66 66 66 66 65 65 65 65 64 64 64 64 63 63 62 61 61 61 61 61 61 62 62 62 61 60 59 59 58 57 57 58 58 59 59 59 60 60 59 58
44 44 45 45 46 46 47 47 47 48 48 49 49 49 50 50 51 52 52 53 53 54 55 55 56 56 57 58 59 59 60 61 62 62 63 64 64 65 66 66 67 67 68 68 68 68 68 68 68 68 67 67 66 66 66 65 65 65 65 64 64 64 63 63 62 62 62 62 63 63 62 61 60 59 58 58 58 59 59 58 58 58 59 59 59
44 44 45 45 46 46 47 47 48 48 49 49 49 50 50 51 51 52 53 53 54 54 55 56 56 57 58 58 59 60 60 61 61 62 63 64 65 66 67 67 68 69 69 70 70 70 70 70 70 70 70 70 69 69 68 68 67 67 67 66 66 66 65 65 64 63 63 63 63 62 62 62 61 60 60 60 60 59 58 58 58 58 58 59 59
44 44 45 46 46 47 47 48 48 49 49 49 49 50 50 51 52 52 53 53 54 55 55 56 57 58 59 59 60 60 61 61 62 63 64 65 65 66 67 68 69 69 70 71 72 72 71 72 72 72 73 72 72 72 71 71 70 70 69 68 68 68 67 66 65 64 64 63 63 62 62 62 62 62 61 61 61 60 59 59 59 58 57 58 59
44 44 45 46 46 47 47 48 48 48 49 49 49 50 51 51 52 52 53 53 54 54 55 56 57 57 58 59 60 61 61 62 63 64 65 65 66 66 67 68 69 69 70 71 72 72 73 73 73 73 74 74 74 74 73 73 73 73 73 72 71 70 70 69 68 66 66 65 64 63 63 63 63 62 62 61 61 61 60 60 59 58 58 58 58
44 45 45 46 46 47 47 48 48 48 48 49 49 50 50 51 52 52 52 53 53 54 54 55 56 57 57 58 59 60 61 62 63 64 64 65 65 65 66 68 69 69 70 71 72 72 73 73 73 73 74 74 75 75 75 75 74 74 74 74 74 73 73 72 71 69 68 67 66 65 64 64 63 62 61 61 60 61 61 60 60 60 59 59 59
44 44 45 45 46 47 47 48 48 48 48 48 49 49 50 50 51 51 52 52 53 53 54 55 55 56 57 58 59 60 60 61 62 63 64 64 65 65 66 67 69 69 70 71 71 72 72 72 73 73 73 74 74 74 74 75 75 75 75 75 75 75 75 75 75 73 72 70 69 68 66 65 65 63 62 61 61 61 61 61 61 61 60 60 60
44 44 44 45 46 46 47 47 47 47 47 48 49 49 49 50 50 51 51 52 52 53 54 54 55 56 56 58 59 59 60 60 61 62 63 63 64 65 65 66 67 68 69 69 70 71 71 71 72 72 72 73 73 73 74 74 75 75 75 75 75 75 76 76 76 75 75 73 72 71 69 67 66 65 63 63 63 63 62 62 62 62 62 62 61
43 44 44 45 45 45 45 45 46 46 47 48 49 49 49 50 50 50 51 51 52 52 53 54 54 55 56 57 58 59 59 59 60 61 61 62 63 63 63 64 65 66 67 67 68 69 69 70 71 71 71 71 72 72 73 73 74 75 75 76 76 76 76 76 75 75 75 74 74 74 72 70 68 67 65 65 65 65 64 64 63 63 63 63 63
43 43 44 44 44 44 45 45 46 46 47 48 48 48 49 49 49 50 50 50 51 51 52 53 54 55 56 56 58 58 58 58 58 59 60 60 61 61 61 62 63 63 63 63 63 64 65 66 67 68 69 69 70 71 71 71 72 74 75 76 76 76 76 77 77 76 76 76 75 75 75 73 71 70 68 67 67 66 65 64 64 63 63 63 63
42 42 43 43 43 44 44 45 46 46 47 47 48 48 48 48 48 49 49 50 50 51 52 53 54 55 56 56 57 57 56 56 57 58 58 59 59 59 58 58 57 56 56 56 56 57 58 60 61 62 64 65 66 67 68 69 70 72 74 75 75 76 76 76 77 77 78 78 77 77 77 76 74 73 71 70 69 67 65 65 64 63 63 63 62
41 42 42 43 43 43 44 45 46 46 46 47 47 47 47 48 48 48 49 50 50 51 52 53 54 55 55 56 55 55 55 55 56 56 57 57 57 55 53 51 50 50 49 49 49 50 51 53 54 56 58 60 61 63 64 66 68 69 71 73 74 75 76 76 76 76 77 78 78 78 78 77 76 75 74 73 72 70 68 68 66 64 63 63 63
40 41 42 42 43 43 44 45 45 45 46 46 46 46 47 47 47 48 49 50 51 52 52 53 54 54 54 54 54 53 54 54 54 55 55 54 52 49 47 47 46 46 46 45 45 45 46 47 49 50 52 54 56 58 60 62 64 67 68 70 72 74 74 74 74 74 75 76 77 77 77 77 76 75 74 74 73 72 72 71 69 66 66 65 64
40 41 42 43 43 44 44 44 45 45 45 45 45 46 46 46 47 48 49 50 51 52 52 53 54 54 53 52 52 51 52 52 53 53 53 51 48 46 44 44 45 45 45 45 45 45 45 46 47 48 49 51 52 54 56 58 60 62 65 67 69 71 71 71 72 73 73 75 76 77 77 76 75 74 74 74 73 73 73 73 72 70 69 68 66
40 41 42 43 43 44 44 44 44 44 44 45 45 45 46 46 47 48 49 50 51 51 52 52 53 52 51 50 50 50 51 51 51 51 49 47 44 43 43 43 43 44 44 45 45 46 46 46 47 48 50 52 53 54 55 57 58 60 62 64 66 67 68 69 71 73 73 74 75 76 76 77 76 75 74 74 74 73 73 73 73 72 71 70 67
41 42 42 43 43 43 44 44 44 44 44 44 45 45 46 46 47 48 49 50 51 51 52 52 51 50 48 48 48 48 49 49 49 48 46 43 42 43 42 43 43 44 44 45 45 46 47 47 48 50 52 54 54 55 56 57 58 59 60 62 63 64 65 66 68 70 72 73 74 74 75 76 76 76 75 74 74 73 73 72 72 72 73 72 70
41 42 42 43 43 43 43 43 43 43 43 44 44 45 46 46 47 48 48 49 50 51 51 50 49 48 47 46 46 47 47 47 47 45 43 42 42 42 43 43 44 44 44 45 46 46 47 48 49 51 52 54 55 56 57 58 58 58 59 61 62 62 63 63 64 66 69 71 72 73 74 74 75 75 76 75 74 74 73 72 72 72 72 73 72
42 42 43 43 43 43 42 42 42 43 43 44 44 45 46 46 47 47 48 49 50 50 49 48 46 46 45 45 45 45 45 45 45 43 42 41 42 42 43 43 44 44 45 45 46 46 47 48 49 51 52 53 55 56 57 58 58 59 59 60 60 60 60 60 61 63 65 67 70 71 72 73 73 74 74 74 74 73 73 72 71 71 71 72 72
42 42 43 43 42 42 42 42 42 42 43 43 44 45 45 46 46 47 47 48 49 49 47 45 44 44 44 44 43 43 44 44 43 41 41 41 41 41 42 43 44 45 45 45 46 47 47 49 50 51 52 53 54 55 55 55 56 57 58 59 58 58 58 58 59 60 61 63 66 68 70 71 71 71 72 72 73 73 72 72 71 71 70 70 70
42 42 42 42 42 42 42 42 42 42 43 43 43 44 45 45 46 47 47 47 47 46 44 43 43 43 42 42 43 43 43 42 41 40 40 40 40 41 42 43 44 45 45 46 47 48 48 50 51 51 51 52 52 51 51 52 53 54 55 55 56 56 56 56 57 57 58 59 61 64 66 67 68 68 68 69 71 72 72 72 71 70 69 69 69
42 42 42 41 41 41 41 41 42 42 42 43 43 44 44 45 46 46 46 46 45 44 42 41 41 41 41 42 42 42 42 41 40 39 39 39 39 41 42 42 43 43 44 44 45 46 48 49 50 50 50 50 49 48 48 49 50 50 50 51 52 53 54 55 55 56 56 57 58 60 61 62 63 64 65 66 68 69 70 70 70 69 69 68 68
41 41 41 41 41 41 41 41 42 42 42 42 43 43 44 44 45 45 45 44 43 41 41 40 41 41 41 41 41 41 41 41 40 39 38 39 39 40 40 41 41 42 42 43 44 45 46 47 47 47 48 47 46 45 45 44 45 46 47 48 49 50 51 52 53 53 54 54 55 56 56 57 58 60 61 63 64 66 67 68 69 69 68 68 68
41 41 41 41 41 41 41 41 41 41 42 42 42 43 43 43 44 44 43 42 41 40 40 40 40 40 40 41 41 41 40 40 40 40 40 39 40 40 40 40 41 41 41 43 43 43 43 43 43 43 43 43 43 42 42 42 42 43 44 45 46 47 48 48 48 49 50 51 52 53 53 53 54 56 57 59 60 62 63 65 66 66 67 67 67
40 40 40 40 41 41 41 41 41 41 41 42 42 42 42 43 43 43 42 40 39 39 40 40 40 40 40 40 40 41 41 41 41 41 40 40 40 40 40 41 41 41 42 42 42 41 41 41 41 42 41 41 40 40 40 40 40 40 41 42 43 44 44 44 44 45 45 47 49 50 51 51 51 52 54 55 56 58 59 61 62 63 64 64 65
40 40 40 40 40 40 40 40 40 40 41 41 41 42 42 42 42 41 40 39 38 38 39 39 39 40 40 40 40 40 41 41 41 41 40 40 40 40 40 41 41 41 41 41 40 39 40 40 41 41 40 39 39 38 39 39 39 39 39 40 40 41 42 42 42 42 42 43 45 47 49 50 50 50 50 51 52 54 55 57 59 60 61 62 62
39 39 39 39 39 39 39 39 39 40 40 40 41 41 41 41 40 39 38 37 37 37 38 38 38 38 39 39 39 39 40 40 40 40 40 40 40 40 40 40 41 41 40 39 38 38 39 40 40 40 39 38 38 38 38 38 38 38 38 38 38 39 40 40 40 40 40 40 41 42 44 46 48 49 49 49 50 51 52 54 56 57 58 59 60
38 38 38 38 38 38 38 38 39 39 40 40 40 40 40 40 39 37 36 35 35 36 36 36 36 37 38 38 39 39 39 39 40 40 39 39 39 40 40 40 39 39 38 36 36 37 37 38 38 38 37 37 37 37 37 37 37 37 37 36 36 37 37 38 39 39 38 38 39 39 40 42 44 45 46 47 48 48 49 51 52 54 55 56 57
37 37 37 37 38 38 38 38 39 39 39 39 39 39 39 38 37 35 34 33 33 33 34 35 36 36 37 37 38 38 38 39 39 39 39 39 39 39 39 38 37 36 35 34 34 35 35 35 36 36 36 36 36 36 35 35 35 35 34 34 33 34 34 34 35 36 36 36 37 37 37 38 40 42 43 44 45 46 47 48 50 51 53 54 55
37 37 37 37 38 38 38 38 39 39 39 39 38 38 37 36 34 33 33 32 32 33 33 34 35 36 36 36 36 37 38 38 38 38 38 38 38 38 37 35 34 34 33 32 32 32 33 33 34 35 35 35 34 34 33 33 32 31 30 30 29 30 30 30 30 31 32 33 34 35 35 35 37 39 40 41 42 43 45 46 47 49 51 52 53
37 37 37 37 38 38 38 38 38 39 39 38 37 37 36 35 33 31 31 31 31 32 33 33 34 35 35 35 35 37 37 37 38 38 38 38 37 36 35 33 32 32 31 31 31 31 31 32 33 35 35 34 33 32 31 31 29 27 26 25 25 25 26 27 27 28 29 30 32 33 33 34 36 37 38 39 40 41 43 44 45 46 48 50 51
37 37 37 38 38 38 39 39 39 39 39 37 36 36 34 33 31 30 30 30 30 31 32 32 32 33 33 33 34 36 36 37 37 37 36 36 35 34 33 32 31 31 30 30 30 30 30 31 32 34 34 33 31 30 30 29 27 25 23 22 22 22 24 25 26 26 28 29 30 31 32 32 33 35 36 37 38 39 41 42 43 44 46 48 48
38 38 38 39 39 39 39 39 39 39 38 37 35 34 32 30 29 28 28 29 29 30 30 31 31 31 32 33 34 35 35 36 36 35 35 34 34 33 32 31 30 30 29 29 29 29 29 30 31 32 32 30 29 28 28 26 24 23 22 21 21 22 23 25 26 26 27 27 28 30 31 31 32 33 33 34 35 37 38 40 41 42 43 45 45
38 39 40 40 40 40 40 40 39 38 37 35 33 32 30 28 27 27 27 28 28 28 29 29 29 30 31 32 32 33 34 34 34 34 34 34 33 32 31 31 29 29 28 28 28 28 29 29 30 30 30 29 27 27 26 24 23 21 21 21 21 21 22 24 25 25 26 27 28 29 30 30 31 32 32 33 34 35 37 38 39 40 41 43 44
39 40 40 41 41 40 39 38 38 37 35 33 31 29 28 26 26 26 26 26 26 27 27 27 28 29 30 31 31 32 33 33 33 33 34 33 33 32 31 30 29 28 28 27 27 28 28 29 29 29 29 28 27 26 25 24 22 21 20 20 21 21 22 23 23 24 25 26 27 28 28 29 30 30 31 32 33 34 35 36 37 38 40 41 41
40 40 40 40 39 38 37 36 35 34 32 30 28 27 26 25 24 25 25 25 25 25 26 26 27 28 29 30 31 31 31 31 32 32 33 33 33 32 30 29 28 28 27 26 26 27 27 28 28 29 28 27 26 25 24 23 22 21 21 20 20 20 21 21 21 22 24 24 25 26 27 27 28 29 29 30 30 31 32 33 35 36 37 37 37
40 40 39 38 37 36 35 34 33 31 28 27 25 24 23 23 23 23 23 23 23 24 24 25 26 26 28 29 30 30 30 30 31 31 32 32 32 31 30 29 28 27 26 25 25 25 26 27 27 28 28 27 26 25 24 23 22 21 20 19 18 18 18 18 19 20 21 22 23 24 24 25 26 26 27 27 28 29 30 31 32 33 33 34 34
39 39 37 36 35 34 33 32 29 27 25 24 22 22 22 22 22 22 22 22 22 22 23 24 24 25 26 28 29 29 29 30 30 31 31 32 32 31 30 29 27 26 24 23 23 23 24 25 26 27 27 26 25 23 22 21 20 19 18 17 16 15 15 16 17 18 18 19 20 21 22 23 24 24 25 26 26 27 28 29 30 30 31 31 32
38 36 35 34 33 32 30 28 26 23 22 21 20 20 20 20 20 20 20 20 21 21 22 22 23 24 26 27 28 28 29 29 30 30 31 31 31 31 30 29 27 25 23 22 22 22 23 24 25 25 25 24 23 22 21 19 18 17 16 15 14 14 14 14 14 15 16 17 18 19 20 21 22 22 23 24 24 25 25 26 27 28 29 30 31
35 34 33 32 31 29 27 24 22 20 19 18 18 19 19 19 19 19 19 19 20 20 21 22 23 24 25 26 27 27 28 29 29 30 30 30 31 31 30 28 27 25 23 22 21 21 22 23 23 24 24 23 22 21 20 18 17 16 15 13 12 12 12 12 12 13 14 15 16 17 18 19 20 20 21 22 22 23 24 24 25 26 27 28 29
33 32 31 30 28 26 23 20 19 17 17 17 17 17 18 18 18 18 18 19 19 19 20 21 22 23 25 26 26 27 28 28 28 29 29 30 30 30 29 28 27 25 23 22 21 21 22 22 22 23 23 22 21 20 19 18 16 15 14 13 12 11 10 10 11 11 12 12 13 14 15 16 17 18 19 19 20 21 21 22 23 25 26 27 28
31 30 29 28 25 22 19 17 16 16 15 16 16 16 16 17 17 17 17 18 18 19 20 21 22 23 24 25 26 26 27 27 27 28 28 28 29 29 28 28 26 25 23 22 21 21 22 22 22 22 22 22 21 20 19 17 16 15 14 13 12 11 10 10 10 10 10 11 12 12 13 14 15 15 16 17 17 18 19 20 21 23 24 25 26
29 28 26 24 21 18 16 15 15 14 15 15 15 16 16 16 16 16 17 17 18 19 20 21 22 23 23 24 25 25 26 26 26 27 27 27 27 27 27 27 26 24 23 22 21 21 21 21 22 21 21 21 20 19 18 17 16 15 13 12 12 11 10 10 9 9 9 9 10 10 11 11 12 13 14 14 15 16 17 18 20 21 22 23 24
27 26 23 20 17 16 15 14 14 14 14 15 15 15 15 16 16 16 17 17 18 19 20 20 21 22 23 23 24 24 25 25 25 26 26 26 26 26 26 26 25 24 23 22 21 20 20 20 21 21 21 21 20 19 18 17 16 14 13 12 12 11 10 9 8 8 8 7 7 7 8 9 10 11 12 12 13 14 16 17 18 19 20 21 22
25 22 19 17 15 14 14 13 14 14 14 14 14 15 15 15 16 16 17 17 18 19 20 20 21 22 22 23 23 24 24 24 24 25 25 25 25 24 24 24 24 23 22 21 21 20 20 20 20 21 21 21 20 19 18 17 16 15 13 13 12 11 10 9 8 8 7 6 5 5 5 6 7 8 9 10 11 12 13 15 16 17 18 19 20
21 18 16 15 14 13 13 13 14 14 14 14 14 15 15 16 16 16 17 18 18 19 20 20 21 21 22 22 23 23 23 23 23 24 24 24 23 23 23 23 23 22 21 21 20 20 20 20 20 20 20 20 20 19 18 17 17 16 15 14 13 12 10 10 9 8 6 4 3 2 2 3 4 5 7 8 9 10 11 13 14 15 16 17 19
Wind_Direction
286 287 287 287 287 287 287 287 287 287 287 287 287 286 286 286 286 285 285 285 284 284 283 283 283 282 282 281 281 281 281 280 280 279 278 277 277 276 276 275 274 273 273 273 272 272 271 271 271 270 270 270 269 268 268 267 266 265 265 264 264 263 263 263 263 263 262 261 261 260 258 257 256 255 255 254 254 254 253 253 253 252 252 252 252
286 287 287 287 287 287 287 287 287 287 287 287 287 286 286 286 286 286 285 285 285 285 284 284 283 283 282 282 281 281 280 280 280 279 279 278 277 276 276 275 274 274 273 272 272 271 270 270 270 269 269 269 268 268 268 267 267 266 265 264 263 263 263 263 263 263 263 262 261 260 258 257 256 255 254 254 254 253 253 253 252 252 251 251 251
286 287 287 287 288 288 288 288 288 288 288 287 287 287 287 286 286 286 286 285 285 285 285 284 284 283 283 282 282 281 281 280 280 280 279 279 278 277 276 275 274 273 273 272 271 271 270 269 269 268 268 267 267 267 267 266 266 266 265 264 263 263 262 262 262 263 263 262 261 260 259 257 256 255 255 254 254 253 253 252 252 251 251 250 250
286 286 287 287 287 288 288 288 288 288 288 288 287 287 287 287 287 286 286 286 286 286 286 285 284 284 283 283 283 282 282 281 280 280 279 279 278 277 276 275 274 273 272 271 271 270 269 269 268 268 267 267 266 266 265 265 265 264 264 264 263 263 262 261 261 261 262 262 261 260 259 258 257 255 254 254 253 253 252 252 251 251 250 250 249
286 286 287 287 287 288 288 288 289 289 289 288 288 288 287 287 287 287 287 286 286 286 286 286 285 285 284 284 283 283 282 281 281 280 279 278 277 276 276 275 274 273 272 271 270 270 269 268 268 267 267 266 265 265 264 264 264 264 263 263 263 262 262 261 261 260 261 261 261 260 259 258 257 255 254 253 252 252 252 252 251 250 250 249 249
287 287 287 287 287 288 288 289 289 289 289 289 289 288 288 288 288 288 287 287 287 287 286 286 286 285 285 284 284 283 283 282 281 280 279 278 277 276 275 274 273 272 272 271 270 269 269 268 268 267 266 266 265 264 263 263 263 263 263 263 262 262 261 261 260 260 260 260 260 260 259 258 257 255 254 252 251 251 251 251 251 250 249 249 248
287 287 287 287 288 288 288 289 289 289 289 289 289 289 289 289 288 288 288 288 287 287 287 287 286 286 285 285 284 284 283 283 282 281 280 279 278 277 276 275 274 272 271 271 270 269 269 268 268 267 266 266 265 264 263 263 262 261 261 261 262 261 261 260 260 259 259 259 259 259 258 257 256 255 254 252 251 250 250 250 250 249 249 249 248
286 287 287 288 288 289 289 289 290 290 290 290 289 289 289 289 289 288 288 288 288 288 288 287 287 286 286 285 285 284 284 283 283 282 281 280 279 278 277 276 275 273 272 271 270 269 269 268 267 267 266 265 265 264 263 263 262 262 261 261 260 260 260 260 259 259 258 258 258 258 257 256 255 254 253 252 250 250 249 249 249 249 249 249 248
287 287 288 289 289 289 290 290 290 291 290 290 289 289 289 289 289 289 289 289 289 289 289 288 288 288 287 286 286 285 285 284 284 283 282 281 280 279 278 276 275 274 273 272 271 270 269 268 267 267 266 265 264 263 263 263 263 262 261 261 260 260 259 259 259 258 258 257 257 257 256 255 254 253 252 251 250 250 250 249 249 249 248 248 248
287 288 288 289 289 290 290 290 290 291 290 290 289 290 290 290 290 290 290 290 290 290 289 289 289 288 288 287 287 286 286 285 285 284 284 282 281 280 278 277 276 275 274 273 271 270 269 268 268 267 266 265 265 264 263 262 262 262 262 261 260 260 259 259 258 258 258 257 257 256 255 254 254 252 252 251 250 250 249 248 249 249 248 248 248
287 288 288 289 289 290 290 290 291 291 291 290 290 291 291 291 291 291 291 291 291 291 291 290 290 290 289 288 288 287 287 287 287 286 285 284 282 281 279 278 277 275 274 273 272 271 270 269 268 267 266 266 265 264 263 262 262 261 261 260 260 259 258 258 257 257 257 256 256 255 254 254 254 253 252 251 250 249 249 249 248 248 248 248 249
287 287 288 289 289 290 290 291 291 291 291 291 291 292 292 292 292 292 292 292 292 291 291 291 291 291 290 290 289 289 288 288 288 287 286 285 283 282 280 279 278 276 275 274 273 272 271 270 269 267 267 266 265 265 264 263 262 261 260 260 259 259 258 257 256 256 255 255 255 254 254 254 254 253 251 251 250 249 249 248 248 248 248 248 249
286 287 288 289 289 290 290 291 291 291 291 292 292 292 292 292 292 292 292 292 292 292 292 292 292 292 291 291 291 291 291 291 290 288 287 286 284 283 281 280 279 277 276 275 274 272 271 270 269 268 267 266 265 265 264 263 263 262 261 260 259 258 258 257 256 255 255 254 254 253 253 253 253 252 251 250 249 248 248 248 248 247 247 248 249
286 288 289 289 290 291 291 291 291 291 292 292 292 293 293 293 293 292 292 293 293 293 293 293 293 293 293 293 293 293 293 292 291 289 288 287 286 284 282 281 279 278 277 276 275 273 272 271 270 269 267 266 265 265 264 263 263 262 261 260 258 257 257 256 256 255 255 254 253 252 252 252 252 252 251 250 249 248 248 248 248 247 248 248 249
287 289 290 290 291 291 292 292 292 292 292 293 293 293 293 293 293 293 293 293 293 293 294 294 294 294 294 294 295 294 294 293 292 291 290 289 288 286 284 282 281 280 278 277 276 274 273 272 271 270 269 267 266 265 265 264 263 262 261 260 258 257 256 255 255 255 254 254 253 253 252 251 251 251 251 250 250 249 249 248 248 248 248 248 248
289 290 290 291 291 292 292 292 292 292 293 293 293 293 293 294 294 294 294 294 294 294 295 295 295 296 296 296 296 295 294 294 293 292 291 290 289 288 286 285 283 282 280 279 277 276 274 273 272 271 270 269 268 266 265 264 263 262 261 260 259 257 256 255 254 254 254 254 254 253 252 251 251 250 250 250 250 249 249 248 248 247 247 247 247
289 290 291 291 292 292 292 292 293 293 294 294 294 294 294 294 295 295 295 295 295 296 296 296 297 297 298 298 297 296 295 295 294 293 293 292 291 289 288 286 285 283 282 281 279 277 276 274 273 272 271 270 269 268 266 265 263 262 261 260 259 258 256 255 254 253 253 253 253 253 252 251 251 250 249 249 249 248 247 247 246 245 245 246 246
290 291 291 291 292 292 293 293 294 294 295 295 295 295 295 296 296 296 296 296 296 297 297 298 298 299 299 299 298 297 296 296 296 295 294 294 293 291 288 286 285 284 284 282 281 280 278 277 276 274 273 271 270 269 267 265 264 262 261 260 259 258 257 256 255 254 253 252 252 252 252 251 250 250 249 248 248 248 247 246 245 245 244 244 245
290 291 292 292 293 293 294 295 295 295 296 296 296 296 296 297 297 297 297 297 298 298 299 299 300 300 300 299 299 298 298 297 297 296 296 295 293 290 288 286 286 285 284 284 283 282 281 280 278 277 275 274 273 271 269 267 265 263 262 261 259 258 257 256 255 254 253 252 251 250 250 250 250 249 248 248 247 247 246 246 245 244 244 244 244
291 292 293 293 294 294 295 296 296 296 296 296 297 297 297 298 298 298 298 298 299 299 300 301 301 301 301 300 300 299 299 299 298 298 298 296 293 290 288 287 286 285 285 284 284 283 283 281 280 279 278 276 275 274 272 270 268 265 263 261 260 259 258 256 256 255 253 252 250 249 249 249 249 248 248 247 247 246 246 246 245 244 244 244 244
292 293 294 294 295 295 296 296 296 296 297 297 297 298 298 298 299 299 299 300 300 301 301 302 302 301 301 301 301 301 301 300 300 300 298 295 293 290 289 288 287 286 286 285 285 285 284 283 281 280 279 278 277 275 274 272 270 268 265 263 262 261 259 257 256 255 254 252 251 249 248 247 247 247 247 246 246 246 246 245 245 244 244 244 244
293 294 294 295 295 296 296 297 297 297 297 297 298 298 299 299 299 300 300 301 301 302 303 303 302 302 301 302 302 302 302 302 301 300 298 295 293 292 290 288 288 287 286 286 286 286 285 284 284 283 281 280 278 276 275 273 271 269 267 265 264 262 260 258 256 255 253 252 251 250 248 246 246 245 245 245 245 245 245 245 245 244 244 244 244
294 294 295 295 296 296 297 297 297 297 297 298 298 299 299 300 300 301 301 302 303 303 304 303 302 302 302 303 304 304 304 304 303 301 298 296 294 293 291 290 289 288 288 287 287 287 287 286 286 285 284 282 280 278 277 274 272 269 267 266 264 263 261 259 257 255 253 252 251 250 248 246 245 244 244 245 245 245 245 245 245 244 244 244 244
294 295 295 296 296 297 297 297 297 297 298 298 299 299 300 300 301 302 303 303 304 304 304 303 303 303 304 305 305 306 306 306 305 301 298 296 295 294 292 291 290 290 289 289 289 289 289 288 288 287 286 284 283 281 279 276 273 270 268 266 264 262 261 259 258 256 254 252 251 250 248 247 245 244 244 244 244 244 244 244 244 244 244 244 243
295 295 296 296 297 297 297 297 297 298 298 299 299 300 300 301 302 303 304 304 304 304 304 303 303 304 305 306 307 307 308 308 306 302 299 297 295 294 293 293 292 291 290 290 290 290 290 290 290 289 288 287 285 284 281 278 275 271 268 266 264 261 260 259 258 257 255 253 251 250 248 247 246 245 244 243 243 243 243 243 243 243 243 243 243
295 295 296 296 297 297 297 298 298 298 299 299 300 300 301 302 303 304 304 304 304 304 303 303 304 305 306 307 307 307 308 308 306 303 300 297 296 295 294 293 293 292 291 290 290 291 291 291 292 292 291 289 287 284 281 278 275 272 269 266 263 261 259 259 257 257 256 254 252 250 249 247 246 245 244 243 242 242 241 241 242 242 242 242 243
295 295 296 296 297 297 297 298 298 298 299 299 300 301 302 303 303 304 304 304 304 304 303 304 306 307 307 307 307 307 308 308 307 304 302 300 298 297 296 295 293 292 291 291 291 292 292 293 293 293 292 291 288 285 281 278 276 273 270 268 264 261 259 259 258 257 256 254 253 251 249 247 245 243 242 242 241 241 241 240 241 241 240 241 242
295 296 296 297 297 297 297 298 298 299 299 300 301 301 302 303 303 304 304 305 304 304 304 305 306 306 306 307 307 308 309 309 308 306 304 302 301 299 299 298 296 294 293 292 292 293 293 294 295 295 294 292 290 287 283 279 276 274 272 269 266 263 260 259 258 258 256 255 252 250 249 246 244 242 241 241 241 240 240 240 240 240 240 240 241
295 296 297 297 297 297 297 298 298 299 300 300 301 302 303 304 304 304 305 305 304 304 305 306 306 306 306 307 308 308 309 310 309 307 305 303 302 302 301 300 299 297 295 294 294 295 296 297 298 298 297 294 291 289 286 283 279 276 273 270 267 263 260 259 258 259 258 255 251 248 247 245 243 241 240 240 240 240 240 239 239 240 240 239 240
296 296 296 297 297 297 298 298 299 299 300 301 301 302 303 304 304 304 304 304 304 305 306 306 307 307 307 307 308 309 309 310 310 308 306 304 303 303 303 302 301 300 298 297 298 299 300 301 302 301 299 296 293 291 289 287 283 279 275 271 267 263 259 257 257 259 259 255 250 247 246 244 243 241 240 239 239 240 239 239 239 239 239 239 239
296 296 296 296 297 297 298 298 299 300 300 301 302 303 304 305 305 305 304 304 304 306 306 307 308 308 308 309 310 310 311 311 311 310 308 306 305 304 304 304 304 302 301 300 300 301 302 303 304 303 301 298 296 294 292 289 285 282 278 273 268 263 259 256 256 258 259 256 251 248 246 244 243 242 240 239 239 239 239 239 238 238 238 239 239
296 296 296 297 297 298 298 299 300 300 301 302 303 304 304 305 305 305 305 305 306 306 307 308 309 310 310 311 312 312 312 313 312 311 310 309 307 306 306 306 306 305 303 302 302 302 303 304 304 304 303 300 298 296 293 290 287 283 279 275 269 263 258 255 255 257 258 256 252 249 247 245 243 241 240 239 239 239 239 238 237 237 238 238 239
296 296 297 297 298 298 299 300 300 301 302 303 303 304 305 305 305 305 305 306 307 308 308 309 310 311 312 313 314 314 314 314 314 313 312 311 310 309 309 308 308 306 305 304 304 304 305 305 306 307 306 303 301 297 294 291 288 285 281 275 269 263 259 256 256 256 256 254 251 249 247 245 242 240 239 239 239 239 239 238 237 237 237 237 238
296 297 297 298 298 299 299 300 301 301 302 303 303 304 305 305 304 304 304 306 308 309 311 312 313 314 315 315 316 316 316 316 315 315 315 313 312 312 311 310 310 308 307 306 306 307 307 308 310 311 310 307 303 300 296 293 290 286 282 276 268 262 258 256 255 254 254 252 250 247 246 244 241 240 239 239 239 239 239 238 237 236 236 237 237
297 297 298 298 298 299 299 300 300 301 302 302 303 304 304 304 304 304 304 305 306 308 310 312 314 316 317 317 318 318 318 318 318 317 317 316 315 314 313 312 312 311 310 309 308 309 310 312 314 315 313 310 307 303 299 296 292 289 284 278 269 261 257 254 253 253 253 251 248 246 244 242 241 240 240 240 239 239 239 239 238 237 236 236 236
297 298 298 298 298 299 299 300 300 301 301 302 303 303 304 303 303 303 304 305 305 307 309 311 314 316 318 319 320 321 321 321 320 320 319 317 316 316 315 314 313 313 311 310 309 310 312 314 316 317 316 313 310 307 303 299 296 292 288 282 271 261 256 254 253 253 253 251 248 245 244 243 241 241 241 241 241 240 240 239 238 237 236 235 234
297 298 298 298 298 298 299 299 299 300 300 302 302 302 302 302 302 302 303 304 306 307 309 311 314 317 319 321 323 323 323 323 323 322 320 319 318 317 316 315 315 314 313 311 311 311 314 316 318 318 317 315 313 310 308 303 297 292 290 285 274 262 257 256 255 255 254 252 248 246 244 244 243 242 242 242 242 241 240 239 238 237 235 233 232
297 297 298 297 297 297 298 298 298 298 299 300 301 301 301 301 301 301 302 304 306 308 310 312 315 317 320 322 324 325 325 326 326 325 324 322 320 319 318 317 316 315 314 312 312 312 314 317 319 319 319 318 316 314 312 308 301 294 288 284 276 268 262 259 259 257 255 251 249 247 245 245 244 244 243 243 243 242 240 239 237 236 234 231 230
297 297 297 297 297 297 297 296 296 296 297 298 299 299 299 299 299 300 302 305 307 310 312 314 317 319 320 322 324 326 327 327 328 327 326 325 323 322 320 319 317 315 314 313 312 312 314 316 319 320 320 319 317 316 314 311 307 300 292 285 279 273 267 263 260 257 254 251 250 248 247 246 246 245 245 245 244 243 241 239 236 234 232 230 230
297 297 297 297 297 297 296 296 295 294 295 296 296 297 297 297 298 300 303 305 308 311 313 316 318 321 322 324 326 327 328 328 328 328 328 328 327 325 323 321 319 317 315 314 314 313 314 317 319 321 320 319 317 316 314 311 308 304 298 290 283 278 272 266 261 257 254 252 251 250 249 248 248 247 247 246 245 243 241 238 235 233 231 230 229
297 297 297 297 297 297 297 296 294 293 293 293 293 294 294 295 297 300 303 305 308 312 315 317 320 323 324 326 328 329 330 330 330 331 331 331 330 329 327 325 322 319 317 316 316 316 317 318 319 320 320 319 317 316 315 313 310 306 301 295 288 282 276 270 264 259 256 253 251 250 250 249 249 248 247 246 245 242 239 236 234 232 230 229 228
297 297 297 297 296 297 297 295 294 292 291 290 290 291 292 295 298 300 303 306 309 313 316 319 322 325 327 329 331 332 333 333 334 335 335 335 334 333 331 329 326 322 320 319 320 320 321 322 322 322 322 321 319 318 318 317 314 311 306 299 292 286 280 274 269 263 258 253 251 250 249 249 248 247 246 244 242 240 238 235 232 230 228 226 226
296 296 296 296 296 297 296 295 293 290 288 287 287 289 291 295 298 300 303 307 310 313 316 320 323 326 329 331 333 335 336 337 338 339 338 338 338 337 335 333 330 327 324 323 324 325 326 326 327 327 327 326 323 322 321 321 319 316 312 306 299 292 286 280 274 267 261 255 252 251 249 248 247 246 244 242 241 238 235 232 230 227 226 224 224
295 295 295 295 296 296 295 293 290 286 284 284 285 288 291 295 298 301 305 308 311 314 317 321 324 327 330 332 334 336 337 339 340 340 341 341 341 341 340 338 335 332 329 328 330 330 331 331 332 332 332 332 330 328 326 325 324 322 319 314 308 301 294 287 280 273 265 260 256 253 250 249 247 245 243 241 237 234 232 229 227 225 224 222 221
293 293 294 295 295 294 292 289 286 282 281 283 285 288 292 295 299 302 306 308 311 315 318 321 325 327 330 332 334 336 337 339 340 341 342 342 343 343 343 342 340 337 335 334 334 336 336 337 337 337 337 338 337 336 334 332 331 329 325 320 314 308 301 293 285 278 271 265 260 256 252 250 246 243 240 237 234 231 229 226 225 224 222 220 219
292 293 294 294 293 291 288 284 281 278 279 282 286 289 293 296 299 303 306 309 312 316 319 322 325 328 330 332 334 335 337 338 340 341 342 343 344 345 345 345 344 343 340 339 339 340 341 342 342 342 343 343 342 342 341 340 338 335 332 327 320 312 303 293 285 279 274 269 263 258 254 250 245 240 237 234 232 230 227 224 223 222 220 218 217
290 292 292 291 289 286 282 278 276 276 279 283 286 290 293 297 300 304 306 310 313 316 319 323 326 328 330 332 334 335 337 338 339 341 342 343 345 346 347 347 347 346 345 344 344 345 346 347 347 347 348 348 347 346 346 345 343 340 337 332 326 318 310 301 295 290 285 277 270 262 256 250 244 239 235 232 229 226 223 221 219 218 217 215 214
289 290 289 286 283 278 274 272 272 275 279 283 287 290 294 297 301 304 307 311 314 317 320 323 326 328 330 332 334 335 337 338 339 341 342 344 346 348 349 349 349 349 348 348 348 348 349 351 351 352 352 352 352 351 351 350 349 347 343 339 334 329 323 317 311 305 297 287 276 265 256 249 242 236 231 227 224 222 219 216 215 214 213 213 211
287 286 283 279 274 270 267 267 270 275 280 283 287 290 294 298 301 305 308 311 314 317 320 322 325 327 329 332 334 335 337 338 339 341 342 344 346 349 351 352 352 353 353 352 351 351 352 353 355 355 356 355 356 356 355 354 354 353 352 349 346 343 341 338 331 323 312 298 282 266 254 246 237 230 224 221 218 217 215 213 211 210 210 210 209
282 280 275 269 264 261 262 265 271 276 280 283 286 290 294 298 301 305 309 312 315 317 319 322 324 326 328 330 332 334 336 337 338 340 341 343 345 347 350 352 354 355 356 356 355 356 356 356 357 358 359 359 359 359 359 359 359 359 359 359 359 359 359 358 352 343 331 312 289 267 252 240 229 221 216 213 212 211 210 209 208 207 207 207 207
276 271 264 258 256 257 261 266 272 276 279 282 286 290 293 297 301 304 308 311 314 316 318 320 322 324 326 328 330 332 334 335 337 338 340 341 343 345 348 351 353 355 356 357 358 359 359 359 0 2 2 2 3 3 4 4 4 5 6 7 10 13 14 11 5 359 353 338 309 270 235 217 208 204 202 204 205 204 202 201 201 201 201 201 200